Year,Month,Day,Hour,Minute,Value (Times are PST for windgust in km/hr)
2017,11,23,02,02,45.10
2017,11,23,02,03,57.90
2017,11,23,02,04,51.50
2017,11,23,02,05,54.70
2017,11,23,02,06,61.20
2017,11,23,02,07,46.70
2017,11,23,02,08,40.20
2017,11,23,02,09,57.90
2017,11,23,02,10,45.10
2017,11,23,02,11,43.50
2017,11,23,02,12,45.10
2017,11,23,02,13,56.30
2017,11,23,02,14,43.50
2017,11,23,02,15,48.30
2017,11,23,02,16,48.30
2017,11,23,02,17,48.30
2017,11,23,02,18,48.30
2017,11,23,02,19,53.10
2017,11,23,02,20,53.10
2017,11,23,02,21,45.10
2017,11,23,02,22,40.20
2017,11,23,02,23,62.70
2017,11,23,02,24,53.10
2017,11,23,02,25,43.50
2017,11,23,02,26,41.80
2017,11,23,02,27,43.50
2017,11,23,02,28,51.50
2017,11,23,02,29,40.20
2017,11,23,02,30,38.60
2017,11,23,02,31,49.90
2017,11,23,02,32,49.90
2017,11,23,02,33,49.90
2017,11,23,02,34,45.10
2017,11,23,02,35,43.50
2017,11,23,02,36,43.50
2017,11,23,02,37,37.00
2017,11,23,02,38,48.30
2017,11,23,02,39,46.70
2017,11,23,02,40,53.10
2017,11,23,02,41,51.50
2017,11,23,02,42,57.90
2017,11,23,02,43,41.80
2017,11,23,02,44,43.50
2017,11,23,02,45,45.10
2017,11,23,02,46,45.10
2017,11,23,02,47,62.70
2017,11,23,02,48,49.90
2017,11,23,02,49,43.50
2017,11,23,02,50,43.50
2017,11,23,02,51,45.10
2017,11,23,02,52,40.20
2017,11,23,02,53,40.20
2017,11,23,02,54,46.70
2017,11,23,02,55,43.50
2017,11,23,02,56,51.50
2017,11,23,02,57,35.40
2017,11,23,02,58,45.10
2017,11,23,02,59,43.50
2017,11,23,03,00,48.30
2017,11,23,03,01,40.20
2017,11,23,03,02,41.80
2017,11,23,03,03,33.80
2017,11,23,03,04,51.50
2017,11,23,03,05,43.50
2017,11,23,03,06,43.50
2017,11,23,03,07,43.50
2017,11,23,03,08,41.80
2017,11,23,03,09,37.00
2017,11,23,03,10,43.50
2017,11,23,03,11,37.00
2017,11,23,03,12,41.80
2017,11,23,03,13,45.10
2017,11,23,03,14,41.80
2017,11,23,03,15,41.80
2017,11,23,03,16,41.80
2017,11,23,03,17,40.20
2017,11,23,03,18,40.20
2017,11,23,03,19,53.10
2017,11,23,03,20,48.30
2017,11,23,03,21,37.00
2017,11,23,03,22,53.10
2017,11,23,03,23,46.70
2017,11,23,03,24,43.50
2017,11,23,03,25,37.00
2017,11,23,03,26,30.60
2017,11,23,03,27,40.20
2017,11,23,03,28,41.80
2017,11,23,03,29,48.30
2017,11,23,03,30,48.30
2017,11,23,03,31,35.40
2017,11,23,03,32,32.20
2017,11,23,03,33,49.90
2017,11,23,03,34,43.50
2017,11,23,03,35,45.10
2017,11,23,03,36,40.20
2017,11,23,03,37,37.00
2017,11,23,03,38,40.20
2017,11,23,03,39,49.90
2017,11,23,03,40,43.50
2017,11,23,03,41,43.50
2017,11,23,03,42,43.50
2017,11,23,03,43,43.50
2017,11,23,03,44,46.70
2017,11,23,03,45,46.70
2017,11,23,03,46,33.80
2017,11,23,03,47,37.00
2017,11,23,03,48,46.70
2017,11,23,03,49,45.10
2017,11,23,03,50,46.70
2017,11,23,03,51,40.20
2017,11,23,03,52,53.10
2017,11,23,03,53,41.80
2017,11,23,03,54,35.40
2017,11,23,03,55,45.10
2017,11,23,03,56,43.50
2017,11,23,03,57,41.80
2017,11,23,03,58,41.80
2017,11,23,03,59,43.50
2017,11,23,04,00,41.80
2017,11,23,04,01,40.20
2017,11,23,04,02,38.60
2017,11,23,04,03,25.70
2017,11,23,04,04,37.00
2017,11,23,04,05,45.10
2017,11,23,04,06,43.50
2017,11,23,04,07,33.80
2017,11,23,04,08,38.60
2017,11,23,04,09,40.20
2017,11,23,04,10,37.00
2017,11,23,04,11,29.00
2017,11,23,04,12,30.60
2017,11,23,04,13,38.60
2017,11,23,04,14,38.60
2017,11,23,04,15,25.70
2017,11,23,04,16,40.20
2017,11,23,04,17,35.40
2017,11,23,04,18,32.20
2017,11,23,04,19,33.80
2017,11,23,04,20,24.20
2017,11,23,04,21,29.00
2017,11,23,04,22,30.60
2017,11,23,04,23,32.20
2017,11,23,04,24,30.60
2017,11,23,04,25,30.60
2017,11,23,04,26,29.00
2017,11,23,04,27,32.20
2017,11,23,04,28,27.40
2017,11,23,04,29,32.20
2017,11,23,04,30,30.60
2017,11,23,04,31,25.70
2017,11,23,04,32,35.40
2017,11,23,04,33,35.40
2017,11,23,04,34,43.50
2017,11,23,04,35,33.80
2017,11,23,04,36,35.40
2017,11,23,04,37,35.40
2017,11,23,04,38,32.20
2017,11,23,04,39,29.00
2017,11,23,04,40,37.00
2017,11,23,04,41,43.50
2017,11,23,04,42,35.40
2017,11,23,04,43,27.40
2017,11,23,04,44,29.00
2017,11,23,04,45,37.00
2017,11,23,04,46,37.00
2017,11,23,04,47,37.00
2017,11,23,04,48,41.80
2017,11,23,04,49,30.60
2017,11,23,04,50,35.40
2017,11,23,04,51,37.00
2017,11,23,04,52,35.40
2017,11,23,04,53,30.60
2017,11,23,04,54,37.00
2017,11,23,04,55,37.00
2017,11,23,04,56,30.60
2017,11,23,04,57,35.40
2017,11,23,04,58,35.40
2017,11,23,04,59,32.20
2017,11,23,05,00,32.20
2017,11,23,05,01,30.60
2017,11,23,05,02,32.20
2017,11,23,05,03,24.20
2017,11,23,05,04,37.00
2017,11,23,05,05,37.00
2017,11,23,05,06,32.20
2017,11,23,05,07,32.20
2017,11,23,05,08,32.20
2017,11,23,05,09,27.40
2017,11,23,05,10,32.20
2017,11,23,05,11,27.40
2017,11,23,05,12,33.80
2017,11,23,05,13,30.60
2017,11,23,05,14,17.70
2017,11,23,05,15,25.70
2017,11,23,05,16,20.90
2017,11,23,05,17,30.60
2017,11,23,05,18,20.90
2017,11,23,05,19,30.60
2017,11,23,05,20,30.60
2017,11,23,05,21,19.30
2017,11,23,05,22,25.70
2017,11,23,05,23,29.00
2017,11,23,05,24,29.00
2017,11,23,05,25,22.50
2017,11,23,05,26,22.50
2017,11,23,05,27,22.50
2017,11,23,05,28,27.40
2017,11,23,05,29,20.90
2017,11,23,05,30,27.40
2017,11,23,05,31,19.30
2017,11,23,05,32,25.70
2017,11,23,05,33,22.50
2017,11,23,05,34,19.30
2017,11,23,05,35,25.70
2017,11,23,05,36,25.70
2017,11,23,05,37,20.90
2017,11,23,05,38,20.90
2017,11,23,05,39,16.10
2017,11,23,05,40,16.10
2017,11,23,05,41,27.40
2017,11,23,05,42,20.90
2017,11,23,05,43,20.90
2017,11,23,05,44,22.50
2017,11,23,05,45,20.90
2017,11,23,05,46,25.70
2017,11,23,05,47,20.90
2017,11,23,05,48,20.90
2017,11,23,05,49,22.50
2017,11,23,05,50,24.20
2017,11,23,05,51,20.90
2017,11,23,05,52,25.70
2017,11,23,05,53,25.70
2017,11,23,05,54,16.10
2017,11,23,05,55,16.10
2017,11,23,05,56,19.30
2017,11,23,05,57,22.50
2017,11,23,05,58,20.90
2017,11,23,05,59,20.90
2017,11,23,06,00,20.90
2017,11,23,06,01,20.90
2017,11,23,06,02,29.00
2017,11,23,06,03,22.50
2017,11,23,06,04,32.20
2017,11,23,06,05,20.90
2017,11,23,06,06,17.70
2017,11,23,06,07,24.20
2017,11,23,06,08,24.20
2017,11,23,06,09,27.40
2017,11,23,06,10,27.40
2017,11,23,06,11,32.20
2017,11,23,06,12,30.60
2017,11,23,06,13,25.70
2017,11,23,06,14,25.70
2017,11,23,06,15,22.50
2017,11,23,06,16,25.70
2017,11,23,06,17,22.50
2017,11,23,06,18,24.20
2017,11,23,06,19,30.60
2017,11,23,06,20,22.50
2017,11,23,06,21,30.60
2017,11,23,06,22,30.60
2017,11,23,06,23,30.60
2017,11,23,06,24,25.70
2017,11,23,06,25,29.00
2017,11,23,06,26,32.20
2017,11,23,06,27,40.20
2017,11,23,06,28,35.40
2017,11,23,06,29,35.40
2017,11,23,06,30,27.40
2017,11,23,06,31,27.40
2017,11,23,06,32,24.20
2017,11,23,06,33,22.50
2017,11,23,06,34,27.40
2017,11,23,06,35,25.70
2017,11,23,06,36,27.40
2017,11,23,06,37,25.70
2017,11,23,06,38,25.70
2017,11,23,06,39,20.90
2017,11,23,06,40,32.20
2017,11,23,06,41,27.40
2017,11,23,06,42,25.70
2017,11,23,06,43,25.70
2017,11,23,06,44,22.50
2017,11,23,06,45,22.50
2017,11,23,06,46,29.00
2017,11,23,06,47,22.50
2017,11,23,06,48,24.20
2017,11,23,06,49,17.70
2017,11,23,06,50,19.30
2017,11,23,06,51,20.90
2017,11,23,06,52,17.70
2017,11,23,06,53,16.10
2017,11,23,06,54,22.50
2017,11,23,06,55,22.50
2017,11,23,06,56,20.90
2017,11,23,06,57,20.90
2017,11,23,06,58,17.70
2017,11,23,06,59,16.10
2017,11,23,07,00,19.30
2017,11,23,07,01,19.30
2017,11,23,07,02,11.30
2017,11,23,07,03,11.30
2017,11,23,07,04,19.30
2017,11,23,07,05,20.90
2017,11,23,07,06,16.10
2017,11,23,07,07,16.10
2017,11,23,07,08,16.10
2017,11,23,07,09,17.70
2017,11,23,07,10,17.70
2017,11,23,07,11,14.50
2017,11,23,07,12,12.90
2017,11,23,07,13,14.50
2017,11,23,07,14,16.10
2017,11,23,07,15,16.10
2017,11,23,07,16,14.50
2017,11,23,07,17,11.30
2017,11,23,07,18,11.30
2017,11,23,07,19,11.30
2017,11,23,07,20,17.70
2017,11,23,07,21,16.10
2017,11,23,07,22,14.50
2017,11,23,07,23,16.10
2017,11,23,07,24,9.60
2017,11,23,07,25,11.30
2017,11,23,07,26,14.50
2017,11,23,07,27,14.50
2017,11,23,07,28,11.30
2017,11,23,07,29,11.30
2017,11,23,07,30,17.70
2017,11,23,07,31,11.30
2017,11,23,07,32,11.30
2017,11,23,07,33,11.30
2017,11,23,07,34,9.60
2017,11,23,07,35,16.10
2017,11,23,07,36,16.10
2017,11,23,07,37,14.50
2017,11,23,07,38,9.60
2017,11,23,07,39,11.30
2017,11,23,07,40,11.30
2017,11,23,07,41,11.30
2017,11,23,07,42,9.60
2017,11,23,07,43,16.10
2017,11,23,07,44,14.50
2017,11,23,07,45,16.10
2017,11,23,07,46,14.50
2017,11,23,07,47,17.70
2017,11,23,07,48,19.30
2017,11,23,07,49,19.30
2017,11,23,07,50,19.30
2017,11,23,07,51,19.30
2017,11,23,07,52,19.30
2017,11,23,07,53,19.30
2017,11,23,07,54,19.30
2017,11,23,07,55,19.30
2017,11,23,07,56,19.30
2017,11,23,07,57,19.30
2017,11,23,11,20,1.60
2017,11,23,11,22,4.80
2017,11,23,11,23,8.10
2017,11,23,11,24,3.20
2017,11,23,11,25,4.80
2017,11,23,11,26,4.80
2017,11,23,11,27,1.60
2017,11,23,11,28,8.10
2017,11,23,11,30,1.60
2017,11,23,11,31,1.60
2017,11,23,11,32,6.40
2017,11,23,11,33,1.60
2017,11,23,11,34,6.40
2017,11,23,11,35,4.80
2017,11,23,11,36,11.30
2017,11,23,11,37,3.20
2017,11,23,11,38,4.80
2017,11,23,11,39,3.20
2017,11,23,11,40,3.20
2017,11,23,11,41,4.80
2017,11,23,11,42,6.40
2017,11,23,11,43,6.40
2017,11,23,11,44,6.40
2017,11,23,11,45,6.40
2017,11,23,11,46,6.40
2017,11,23,11,47,4.80
2017,11,23,11,48,4.80
2017,11,23,11,49,4.80
2017,11,23,11,50,3.20
2017,11,23,11,51,4.80
2017,11,23,11,52,3.20
2017,11,23,11,53,1.60
2017,11,23,11,54,4.80
2017,11,23,11,55,3.20
2017,11,23,11,56,6.40
2017,11,23,11,57,3.20
2017,11,23,11,58,6.40
2017,11,23,11,59,6.40
2017,11,23,12,00,6.40
2017,11,23,12,01,6.40
2017,11,23,12,02,3.20
2017,11,23,12,03,8.10
2017,11,23,12,04,12.90
2017,11,23,12,05,6.40
2017,11,23,12,06,4.80
2017,11,23,12,07,1.60
2017,11,23,12,08,4.80
2017,11,23,12,09,3.20
2017,11,23,12,10,6.40
2017,11,23,12,11,3.20
2017,11,23,12,12,1.60
2017,11,23,12,13,3.20
2017,11,23,12,14,1.60
2017,11,23,12,16,3.20
2017,11,23,12,17,8.10
2017,11,23,12,18,6.40
2017,11,23,12,19,4.80
2017,11,23,12,20,6.40
2017,11,23,12,21,4.80
2017,11,23,12,22,9.60
2017,11,23,12,23,6.40
2017,11,23,12,24,3.20
2017,11,23,12,25,6.40
2017,11,23,12,26,6.40
2017,11,23,12,27,4.80
2017,11,23,12,28,4.80
2017,11,23,12,29,8.10
2017,11,23,12,30,8.10
2017,11,23,12,31,11.30
2017,11,23,12,32,14.50
2017,11,23,12,33,12.90
2017,11,23,12,34,11.30
2017,11,23,12,35,6.40
2017,11,23,12,36,9.60
2017,11,23,12,37,11.30
2017,11,23,12,38,8.10
2017,11,23,12,39,6.40
2017,11,23,12,40,8.10
2017,11,23,12,41,6.40
2017,11,23,12,42,4.80
2017,11,23,12,43,8.10
2017,11,23,12,44,8.10
2017,11,23,12,45,9.60
2017,11,23,12,46,8.10
2017,11,23,12,47,8.10
2017,11,23,12,48,3.20
2017,11,23,12,49,3.20
2017,11,23,12,50,8.10
2017,11,23,12,51,9.60
2017,11,23,12,52,4.80
2017,11,23,12,53,3.20
2017,11,23,12,54,6.40
2017,11,23,12,55,8.10
2017,11,23,12,56,3.20
2017,11,23,12,57,1.60
2017,11,23,12,58,3.20
2017,11,23,12,59,3.20
2017,11,23,13,00,6.40
2017,11,23,13,01,8.10
2017,11,23,13,02,4.80
2017,11,23,13,03,3.20
2017,11,23,13,04,1.60
2017,11,23,13,05,3.20
2017,11,23,13,06,4.80
2017,11,23,13,07,4.80
2017,11,23,13,08,11.30
2017,11,23,13,09,4.80
2017,11,23,13,10,11.30
2017,11,23,13,11,6.40
2017,11,23,13,12,4.80
2017,11,23,13,13,4.80
2017,11,23,13,14,8.10
2017,11,23,13,15,1.60
2017,11,23,13,16,6.40
2017,11,23,13,17,6.40
2017,11,23,13,18,6.40
2017,11,23,13,19,3.20
2017,11,23,13,20,8.10
2017,11,23,13,21,8.10
2017,11,23,13,22,6.40
2017,11,23,13,23,6.40
2017,11,23,13,24,6.40
2017,11,23,13,25,6.40
2017,11,23,13,26,8.10
2017,11,23,13,27,8.10
2017,11,23,13,28,4.80
2017,11,23,13,29,6.40
2017,11,23,13,30,19.30
2017,11,23,13,31,6.40
2017,11,23,13,32,4.80
2017,11,23,13,33,4.80
2017,11,23,13,34,14.50
2017,11,23,13,35,8.10
2017,11,23,13,36,6.40
2017,11,23,13,37,9.60
2017,11,23,13,38,9.60
2017,11,23,13,39,9.60
2017,11,23,13,40,14.50
2017,11,23,13,41,8.10
2017,11,23,13,42,4.80
2017,11,23,13,43,11.30
2017,11,23,13,44,6.40
2017,11,23,13,45,3.20
2017,11,23,13,46,8.10
2017,11,23,13,47,9.60
2017,11,23,13,48,4.80
2017,11,23,13,49,8.10
2017,11,23,13,50,9.60
2017,11,23,13,51,8.10
2017,11,23,13,52,9.60
2017,11,23,13,53,8.10
2017,11,23,13,54,9.60
2017,11,23,13,55,9.60
2017,11,23,13,56,6.40
2017,11,23,13,57,6.40
2017,11,23,13,58,8.10
2017,11,23,13,59,8.10
2017,11,23,14,00,4.80
2017,11,23,14,01,6.40
2017,11,23,14,02,12.90
2017,11,23,14,03,9.60
2017,11,23,14,04,9.60
2017,11,23,14,05,9.60
2017,11,23,14,06,8.10
2017,11,23,14,07,9.60
2017,11,23,14,08,11.30
2017,11,23,14,09,16.10
2017,11,23,14,10,8.10
2017,11,23,14,11,6.40
2017,11,23,14,12,16.10
2017,11,23,14,13,11.30
2017,11,23,14,14,14.50
2017,11,23,14,15,6.40
2017,11,23,14,16,20.90
2017,11,23,14,17,20.90
2017,11,23,14,18,14.50
2017,11,23,14,19,19.30
2017,11,23,14,20,24.20
2017,11,23,14,21,11.30
2017,11,23,14,22,9.60
2017,11,23,14,23,17.70
2017,11,23,14,24,8.10
2017,11,23,14,25,4.80
2017,11,23,14,26,9.60
2017,11,23,14,27,11.30
2017,11,23,14,28,8.10
2017,11,23,14,29,6.40
2017,11,23,14,30,8.10
2017,11,23,14,31,4.80
2017,11,23,14,32,9.60
2017,11,23,14,33,17.70
2017,11,23,14,34,9.60
2017,11,23,14,35,11.30
2017,11,23,14,36,17.70
2017,11,23,14,37,9.60
2017,11,23,14,38,11.30
2017,11,23,14,39,17.70
2017,11,23,14,40,16.10
2017,11,23,14,41,20.90
2017,11,23,14,42,20.90
2017,11,23,14,43,19.30
2017,11,23,14,44,14.50
2017,11,23,14,45,14.50
2017,11,23,14,46,8.10
2017,11,23,14,47,12.90
2017,11,23,14,48,16.10
2017,11,23,14,49,19.30
2017,11,23,14,50,14.50
2017,11,23,14,51,12.90
2017,11,23,14,52,19.30
2017,11,23,14,53,17.70
2017,11,23,14,54,20.90
2017,11,23,14,55,9.60
2017,11,23,14,56,9.60
2017,11,23,14,57,8.10
2017,11,23,14,58,9.60
2017,11,23,14,59,8.10
2017,11,23,15,00,14.50
2017,11,23,15,01,14.50
2017,11,23,15,02,9.60
2017,11,23,15,03,19.30
2017,11,23,15,04,32.20
2017,11,23,15,05,19.30
2017,11,23,15,06,16.10
2017,11,23,15,07,17.70
2017,11,23,15,08,17.70
2017,11,23,15,09,16.10
2017,11,23,15,10,16.10
2017,11,23,15,11,20.90
2017,11,23,15,12,16.10
2017,11,23,15,13,20.90
2017,11,23,15,14,8.10
2017,11,23,15,15,9.60
2017,11,23,15,16,14.50
2017,11,23,15,17,17.70
2017,11,23,15,18,14.50
2017,11,23,15,19,9.60
2017,11,23,15,20,14.50
2017,11,23,15,21,16.10
2017,11,23,15,22,14.50
2017,11,23,15,23,17.70
2017,11,23,15,24,8.10
2017,11,23,15,25,9.60
2017,11,23,15,26,9.60
2017,11,23,15,27,6.40
2017,11,23,15,28,9.60
2017,11,23,15,29,4.80
2017,11,23,15,30,6.40
2017,11,23,15,31,11.30
2017,11,23,15,32,16.10
2017,11,23,15,33,11.30
2017,11,23,15,34,4.80
2017,11,23,15,35,8.10
2017,11,23,15,36,6.40
2017,11,23,15,37,6.40
2017,11,23,15,38,9.60
2017,11,23,15,39,9.60
2017,11,23,15,40,11.30
2017,11,23,15,41,8.10
2017,11,23,15,42,9.60
2017,11,23,15,43,9.60
2017,11,23,15,44,14.50
2017,11,23,15,45,11.30
2017,11,23,15,46,9.60
2017,11,23,15,47,8.10
2017,11,23,15,48,11.30
2017,11,23,15,49,9.60
2017,11,23,15,50,8.10
2017,11,23,15,51,6.40
2017,11,23,15,52,8.10
2017,11,23,15,53,6.40
2017,11,23,15,54,9.60
2017,11,23,15,55,9.60
2017,11,23,15,56,11.30
2017,11,23,15,57,9.60
2017,11,23,15,58,8.10
2017,11,23,15,59,14.50
2017,11,23,16,00,9.60
2017,11,23,16,01,9.60
2017,11,23,16,02,8.10
2017,11,23,16,03,11.30
2017,11,23,16,04,6.40
2017,11,23,16,05,9.60
2017,11,23,16,06,11.30
2017,11,23,16,07,9.60
2017,11,23,16,08,9.60
2017,11,23,16,09,9.60
2017,11,23,16,10,14.50
2017,11,23,16,11,8.10
2017,11,23,16,12,6.40
2017,11,23,16,13,6.40
2017,11,23,16,14,14.50
2017,11,23,16,15,14.50
2017,11,23,16,16,9.60
2017,11,23,16,17,9.60
2017,11,23,16,18,11.30
2017,11,23,16,19,8.10
2017,11,23,16,20,3.20
2017,11,23,16,21,3.20
2017,11,23,16,22,3.20
2017,11,23,16,23,3.20
2017,11,23,16,24,3.20
2017,11,23,16,25,3.20
2017,11,23,16,26,3.20
2017,11,23,16,27,3.20
2017,11,23,16,28,3.20
2017,11,23,16,29,3.20
